CAPE
13 0 0 0 0 0 19 10 35 19 97 40 4 18 54 67 79 11 0 0 8 0 507 1250 1488 1668 1786 1968 1818 1741 1510 1799 1990 1735 1824 2051 1795 1733 1681 1567 1528 1811 1097 1373 1786 1481 1543 1654 1968
0 0 0 11 0 2 75 93 18 72 94 61 79 93 102 34 0 0 0 19 8 14 747 1022 1289 1667 1826 1790 1807 1724 1746 2103 1883 1729 1782 1587 1673 1634 1671 1650 1754 1665 1548 1370 1220 1660 1502 1667 1924
0 0 2 24 5 30 82 2 96 145 164 114 90 35 10 19 0 0 27 25 3 269 659 874 1220 1595 1798 1880 1867 1713 1761 1882 1827 1853 1828 1573 1614 1536 1513 1537 1437 1475 1380 1274 1279 1369 1473 1572 1543
3 63 0 0 6 35 146 1 127 156 237 45 1 0 0 4 0 3 42 55 3 347 612 1246 1195 1262 1262 1373 1658 1960 1729 1826 1691 1674 1551 1646 1640 1627 1278 1523 1431 1478 1467 1438 1276 1124 1184 1429 1663
55 8 29 32 2 27 45 32 53 40 10 40 23 11 0 0 0 8 30 100 201 393 904 1241 1600 1898 1786 1927 1817 1717 1807 1813 1809 1689 1572 1849 1479 1581 1312 1384 1413 1464 1482 1346 1282 1058 1181 1339 1275
0 3 56 61 8 140 38 148 147 195 54 26 21 12 0 0 0 11 63 252 465 519 1120 1509 1633 1736 1725 1748 1773 1770 1749 1760 1585 1649 1765 1661 1636 1119 1460 1400 1366 1365 1406 1323 1119 1019 1210 1061 962
0 119 32 87 93 126 8 2 175 94 41 53 41 0 0 0 3 32 292 362 313 617 926 1332 1414 1648 1724 1759 1760 1781 1728 1665 1661 1668 1713 1630 1376 1422 1384 1332 1186 1299 1320 1255 1197 1030 854 607 535
0 9 42 67 47 144 196 65 234 138 140 80 15 0 0 0 0 112 247 306 349 660 680 848 1193 1274 1450 1792 1654 1676 1663 1642 1620 1562 1407 1284 1205 1133 1054 1027 1105 1216 1275 1197 1297 1166 460 357 559
101 33 1 6 34 47 256 229 29 80 83 123 93 0 0 0 2 66 105 171 184 373 488 798 1021 915 1134 1420 1459 1621 1600 1614 1507 1300 1243 1101 964 877 832 1027 1126 1080 1186 1224 997 623 440 498 886
107 64 13 1 126 162 186 77 30 44 51 191 131 1 0 0 9 33 69 28 0 0 382 545 572 574 938 1122 1273 1407 1372 1226 833 901 790 768 677 609 450 864 1138 1080 1049 1166 649 84 355 286 312
3 39 26 33 123 1 1 1 127 64 9 165 49 0 0 0 1 14 9 33 12 3 48 84 328 384 703 901 873 910 697 346 188 321 559 565 597 326 425 497 499 524 635 739 72 0 1 166 353
0 0 0 11 92 28 6 17 135 204 145 279 24 0 0 0 0 0 0 23 15 19 70 127 349 298 331 477 572 574 537 488 340 163 191 473 409 69 157 120 75 112 46 0 108 0 19 233 314
0 0 0 9 210 33 17 28 16 181 255 319 43 9 0 0 0 0 1 11 5 30 70 108 273 219 199 188 338 407 583 635 429 122 344 366 222 161 214 77 31 97 307 48 113 1 37 242 376
0 0 0 243 298 156 86 221 73 109 116 169 51 3 0 0 0 5 4 5 3 8 45 82 232 378 180 229 364 377 528 623 218 86 33 155 499 314 302 281 273 202 206 350 155 168 47 168 408
0 0 0 29 513 385 68 98 277 45 99 227 89 7 3 2 0 0 0 0 0 13 30 40 161 300 200 463 420 65 278 454 383 50 0 244 526 341 180 69 302 157 194 94 54 180 87 141 229
0 0 0 3 510 514 133 105 172 39 290 255 160 12 1 3 7 0 10 36 2 62 24 25 69 115 289 343 292 156 250 299 357 87 173 267 471 506 432 111 83 55 376 165 18 239 155 92 79
0 0 0 0 0 179 224 272 322 337 185 246 137 52 1 6 26 13 12 82 89 51 32 27 5 151 232 153 215 198 347 377 230 249 597 660 558 497 384 336 236 155 65 39 15 64 93 63 44
0 0 0 0 0 12 234 301 358 369 319 170 129 64 0 7 1 6 17 62 121 87 37 28 0 246 404 268 61 115 351 278 374 446 751 753 449 163 267 332 204 211 47 19 34 51 43 93 46
0 0 0 0 0 0 35 312 361 426 355 248 140 69 11 49 22 14 23 89 54 96 13 0 9 228 406 315 37 242 302 426 570 730 855 681 475 0 97 207 399 33 50 43 135 55 46 94 29
0 0 0 0 0 0 42 198 429 304 329 353 244 92 41 63 32 15 6 2 13 4 0 0 3 113 238 212 109 334 242 170 374 759 949 777 661 436 92 166 160 120 43 81 293 123 175 41 19
0 0 0 0 0 46 204 248 255 138 156 499 405 238 141 53 35 68 6 39 2 1 0 57 85 96 140 86 92 350 251 150 214 542 797 857 923 523 313 337 164 413 257 447 278 155 61 6 19
0 0 0 0 0 0 136 65 132 153 151 391 93 163 186 118 96 52 0 16 0 0 52 123 129 179 134 111 16 197 311 159 129 366 555 891 856 760 729 770 771 153 551 383 290 567 175 21 28
0 0 0 0 0 0 0 0 0 154 120 211 2 6 5 92 139 67 7 51 0 0 0 124 144 193 194 63 0 101 439 211 85 313 528 745 1009 850 1081 707 583 524 591 444 104 642 611 339 200
0 0 0 0 0 0 0 0 0 51 175 306 289 94 66 118 107 124 21 14 13 0 0 115 88 99 180 97 4 10 225 357 444 182 452 659 1096 975 892 775 791 556 501 350 456 756 409 344 578
0 0 0 0 0 0 0 0 0 4 62 206 300 370 266 110 88 101 106 14 0 32 40 120 108 81 176 148 67 0 85 169 376 280 375 703 1004 952 1061 939 873 411 555 661 576 1107 926 442 391
0 0 0 0 0 0 0 0 0 0 75 235 275 380 69 118 38 171 175 55 0 21 52 136 136 91 117 190 180 50 45 72 139 379 536 915 931 850 1140 1102 978 917 657 793 540 700 745 671 426
0 0 0 0 0 0 0 0 0 0 0 155 205 134 34 61 176 181 194 81 14 12 25 65 132 86 72 65 49 123 145 64 40 405 747 779 864 830 1170 1171 1123 965 974 754 669 718 599 648 662
0 0 0 0 0 0 0 0 0 0 0 0 103 159 122 139 270 342 237 124 94 105 39 19 76 106 93 69 21 11 93 190 5 2 437 1036 898 859 853 1120 1115 1013 816 919 856 649 711 700 1127
0 0 0 0 0 0 0 0 0 0 0 0 29 59 138 216 232 361 349 182 161 165 156 109 22 54 273 253 132 5 6 161 178 0 3 182 558 815 953 1027 920 1015 884 987 1035 842 776 920 860
0 0 0 0 0 0 0 0 0 0 0 0 0 115 163 205 327 365 417 313 191 214 195 205 152 81 43 317 344 127 0 4 197 85 0 0 60 491 646 710 1011 1097 1000 834 998 981 1110 971 1102
CIN
-51 0 0 -6 -3 0 -34 -20 -74 -42 -31 -26 -73 -74 -76 -112 -107 -78 0 0 -416 0 -29 -1 0 0 0 0 0 0 -5 0 0 0 0 0 0 0 0 0 0 0 -1 0 0 0 0 -3 0
0 0 0 -11 0 -10 -7 -15 -147 -26 -31 -58 -55 -46 -72 -103 0 0 0 -287 -375 -26 -19 -14 -6 0 0 0 -1 0 0 0 0 0 0 -2 0 0 0 0 0 0 0 0 0 0 0 0 -1
0 0 -10 -14 0 -5 -5 -18 -41 -16 -26 -37 -67 -93 -136 -170 0 0 -237 -312 -280 -82 -34 -27 -6 0 0 0 0 0 0 0 0 0 0 0 -1 0 0 0 0 0 0 0 0 0 0 0 -1
-47 -26 -1 0 -25 -12 -4 -59 -34 -20 -44 -90 -2 -4 0 -222 0 -242 -231 -200 -34 -68 -35 -1 -3 0 -3 -1 0 0 0 0 0 0 0 0 0 0 0 0 0 0 0 0 0 -1 -6 -7 -5
-36 -18 -17 -21 -42 -10 -14 -42 -60 -46 -127 -95 -98 -159 0 0 0 -239 -257 -146 -106 -64 -12 0 0 0 0 0 0 0 0 0 0 0 0 0 0 0 0 0 0 0 0 0 0 -8 -12 -12 -11
0 -25 -9 -11 -42 -5 -35 -18 -17 -44 -115 -107 -111 -165 -31 0 0 -205 -198 -91 -66 -66 -4 0 0 0 0 0 0 0 0 0 0 0 0 0 0 0 0 0 0 -1 -1 -2 -3 -10 -11 -13 -11
0 -12 -35 -14 -6 -5 -34 -12 -4 -71 -101 -76 -154 0 0 0 -117 -158 -71 -64 -78 -57 -22 0 0 0 0 0 0 0 0 0 0 0 0 0 0 0 0 0 -1 -2 -4 -5 -13 -14 -18 -24 -17
-4 -69 -51 -26 -27 -18 -21 -19 -8 -18 -42 -52 -132 0 0 0 0 -80 -70 -71 -75 -46 -49 -33 -3 -3 -1 0 0 0 0 0 0 0 0 0 0 -4 -5 -6 -9 -9 -6 -1 -3 -16 -33 -39 -26
-18 -65 -44 -69 -23 -32 -17 -4 -70 -53 -57 -39 -51 0 0 0 -38 -93 -68 -52 -54 -41 -55 -42 -13 -33 -11 -1 -1 0 0 0 -1 -2 -4 -6 -14 -15 -9 -6 -14 -25 -22 -15 -26 -28 -31 -56 -32
-19 -64 -72 -11 -20 -31 -99 -74 -102 -50 -28 -24 -44 -23 0 0 -165 -131 -82 -102 0 0 -54 -55 -62 -68 -19 -3 -4 -8 -10 -19 -34 -20 -19 -26 -25 -35 -36 -24 -13 -28 -41 -42 -56 -71 -38 -49 -71
-15 -100 -75 -39 -22 -9 -63 -28 -95 -23 -27 -53 -93 0 0 0 -24 -169 -87 -106 -121 -59 -92 -114 -82 -82 -42 -32 -40 -42 -50 -57 -62 -44 -34 -40 -32 -48 -44 -55 -59 -62 -65 -71 -95 0 -68 -60 -65
0 0 0 -33 -56 -88 -157 -136 -74 -11 -30 -77 -88 0 0 0 0 0 0 -125 -105 -101 -88 -90 -76 -86 -75 -69 -68 -64 -65 -60 -52 -54 -50 -41 -37 -81 -61 -70 -79 -73 -106 0 -91 0 -111 -87 -89
0 0 -13 -23 -72 -82 -149 -122 -200 -66 -79 -81 -115 -67 0 0 0 0 -10 -86 -104 -98 -62 -95 -82 -89 -90 -80 -75 -70 -49 -51 -51 -93 -47 -40 -42 -45 -47 -88 -98 -78 -80 -85 -77 -4 -77 -56 -65
0 0 0 -37 -103 -135 -118 -74 -90 -84 -109 -93 -138 -54 0 0 0 -43 -49 -67 -79 -43 -79 -84 -76 -80 -75 -61 -66 -71 -46 -38 -55 -82 -71 -58 -36 -43 -39 -48 -50 -65 -80 -73 -83 -111 -90 -58 -77
0 0 0 -24 -64 -103 -146 -65 -34 -79 -118 -77 -103 -68 -19 -15 0 0 0 0 0 -87 -70 -84 -92 -82 -66 -37 -48 -86 -69 -44 -42 -107 0 -42 -31 -35 -51 -85 -49 -65 -66 -55 -74 -82 -111 -63 -58
0 0 0 -27 -55 -84 -59 -36 -56 -170 -100 -81 -69 -43 -15 -16 -10 0 -32 -88 -16 -92 -82 -94 -72 -79 -67 -44 -50 -67 -73 -64 -60 -99 -95 -57 -36 -52 -48 -65 -56 -66 -56 -54 -75 -86 -76 -94 -113
0 0 0 0 0 -69 -44 -62 -120 -99 -84 -94 -103 -63 -8 -17 -12 -24 -30 -88 -94 -94 -90 -85 -98 -57 -57 -61 -65 -74 -51 -58 -71 -75 -45 -38 -42 -45 -38 -39 -47 -46 -101 -52 -57 -108 -103 -128 -63
0 0 0 0 0 -12 -48 -43 -154 -131 -100 -137 -123 -147 0 -81 -5 -16 -28 -77 -93 -106 -104 -105 -23 -68 -49 -58 -66 -52 -50 -54 -49 -46 -30 -31 -45 -86 -60 -45 -74 -75 -55 -43 -35 -37 -54 -109 -31
0 0 0 0 0 0 -42 -72 -133 -155 -101 -127 -126 -160 -168 -105 -29 -22 -28 -73 -80 -105 -116 0 -107 -76 -53 -60 -73 -35 -37 -40 -40 -38 -28 -35 -37 0 -103 -56 -46 -66 -37 -31 -55 -41 -34 -85 -45
0 0 0 0 0 0 -72 -80 -130 -164 -148 -114 -107 -113 -117 -89 -57 -28 -32 -85 -89 -58 0 0 -8 -92 -68 -55 -56 -32 -42 -66 -58 -31 -19 -32 -35 -49 -97 -77 -60 -87 -46 -73 -36 -52 -43 -35 -50
0 0 0 0 0 -59 -89 -59 -84 -127 -126 -19 -24 -36 -55 -85 -192 -107 -42 -160 -64 -59 0 -110 -104 -103 -95 -71 -52 -37 -53 -69 -63 -29 -18 -23 -24 -35 -55 -51 -57 -40 -43 -29 -36 -51 -27 -24 -37
0 0 0 0 0 0 -30 -10 -59 -99 -94 -36 -155 -74 -118 -121 -67 -120 -2 -157 0 0 -97 -111 -102 -97 -88 -77 -134 -31 -46 -56 -94 -48 -31 -26 -27 -36 -25 -34 -34 -40 -32 -27 -33 -32 -47 -37 -19
0 0 0 0 0 0 0 0 0 -87 -108 -153 -333 -386 -356 -214 -138 -121 -239 -145 0 0 0 -113 -119 -102 -88 -101 0 -83 -33 -55 -62 -44 -31 -31 -26 -29 -23 -25 -31 -38 -41 -41 -113 -27 -30 -44 -45
0 0 0 0 0 0 0 0 0 -142 -185 -251 -241 -337 -304 -285 -210 -146 -249 -214 -86 0 0 -127 -125 -117 -99 -95 -31 -60 -58 -43 -28 -59 -45 -32 -29 -28 -29 -35 -29 -34 -45 -44 -40 -34 -35 -34 -30
0 0 0 0 0 0 0 0 0 -72 -165 -219 -278 -250 -260 -217 -181 -171 -195 -275 0 -190 -183 -135 -137 -131 -116 -107 -102 0 -100 -72 -50 -53 -56 -35 -27 -33 -29 -40 -44 -59 -45 -36 -40 -31 -33 -37 -34
0 0 0 0 0 0 0 0 0 0 -130 -185 -255 -190 -222 -185 -227 -191 -193 -285 0 -226 -230 -175 -166 -164 -158 -124 -106 -142 -145 -119 -102 -50 -37 -44 -41 -34 -53 -42 -38 -48 -54 -47 -62 -47 -45 -45 -50
0 0 0 0 0 0 0 0 0 0 0 -197 -272 -304 -317 -327 -301 -256 -194 -236 -314 -238 -287 -248 -211 -201 -196 -174 -151 -132 -133 -151 -171 -65 -44 -41 -45 -46 -48 -53 -49 -52 -58 -66 -66 -63 -65 -58 -50
0 0 0 0 0 0 0 0 0 0 0 0 -243 -265 -273 -352 -266 -258 -231 -257 -335 -334 -308 -157 -250 -222 -228 -214 -167 -114 -150 -125 -41 -71 -66 -43 -46 -47 -49 -46 -50 -46 -56 -63 -66 -72 -71 -67 -42
0 0 0 0 0 0 0 0 0 0 0 0 -212 -249 -243 -325 -321 -336 -279 -282 -318 -367 -385 -364 -224 -238 -217 -185 -192 -84 -59 -131 -127 0 -60 -121 -60 -43 -40 -40 -61 -44 -44 -57 -58 -72 -78 -61 -54
0 0 0 0 0 0 0 0 0 0 0 0 0 -250 -219 -264 -247 -210 -193 -251 -192 -251 -337 -402 -357 -324 -291 -221 -166 -177 0 -36 -119 -178 0 0 -181 -91 -58 -51 -58 -54 -45 -63 -67 -63 -59 -72 -59
Wind_Speed
18 16 14 13 14 13 12 15 14 23 22 21 24 21 23 19 20 19 30 32 33 34 32 30 27 28 25 26 27 26 25 24 24 24 23 22 22 23 22 21 19 18 17 16 16 15 14 15 18
22 18 15 13 15 14 15 12 16 19 10 17 15 14 18 18 17 22 31 33 32 33 31 28 26 28 28 28 29 29 28 27 26 25 24 25 24 23 22 21 19 17 16 15 14 14 14 16 22
19 18 11 14 13 10 15 16 9 8 17 15 12 8 5 15 18 30 30 33 31 30 29 28 27 28 28 29 29 28 28 27 27 26 25 25 25 25 25 25 25 23 19 15 14 13 12 16 21
11 13 15 15 12 9 10 11 9 5 8 9 6 10 11 17 26 27 33 32 30 28 28 26 26 28 28 29 28 28 28 27 27 26 26 26 26 26 27 28 28 28 27 27 19 9 14 27 28
15 13 15 17 15 15 16 18 22 4 13 8 17 15 14 22 23 32 31 30 27 26 27 26 26 25 28 28 28 28 28 28 27 27 26 26 27 27 28 29 28 27 27 27 27 24 27 30 27
12 13 15 18 19 18 17 17 23 20 20 13 14 10 18 24 31 29 30 28 27 25 26 21 24 23 27 28 29 28 28 28 28 27 26 27 28 28 28 28 27 26 26 27 27 29 29 24 18
12 13 16 19 21 16 14 18 22 21 18 19 4 7 18 27 27 29 27 26 26 24 23 18 24 24 28 28 28 27 29 29 28 27 28 28 29 28 28 28 27 26 25 27 28 27 24 22 23
12 14 16 18 20 21 14 18 23 23 19 5 13 28 30 30 27 26 24 24 22 21 22 20 21 21 30 29 26 28 29 29 28 28 29 29 29 29 29 27 27 25 24 26 28 30 17 19 29
13 15 16 18 20 23 16 4 23 20 25 24 22 28 29 30 25 26 25 21 20 20 20 17 17 23 29 30 28 28 29 29 29 29 29 29 29 29 28 27 27 26 23 25 26 12 14 1 14
11 14 15 14 18 19 16 11 18 17 20 17 17 23 26 29 27 24 28 25 23 21 22 21 18 28 29 30 30 27 29 30 29 29 28 27 27 28 29 28 26 25 26 26 26 10 16 23 23
15 15 16 23 18 16 17 19 4 18 17 17 21 28 28 28 28 24 28 27 24 24 23 26 23 29 31 31 31 30 30 29 28 27 26 24 26 26 26 27 26 25 23 22 15 20 21 22 21
20 25 25 24 14 12 18 5 15 21 10 2 23 29 28 26 26 25 27 27 22 25 25 26 26 29 32 32 31 30 29 28 25 25 25 24 24 25 25 25 24 24 22 20 21 20 17 18 19
23 31 29 30 4 6 13 19 11 21 9 3 23 28 26 23 26 27 28 26 24 25 25 29 30 30 32 33 31 29 28 26 25 25 24 24 24 24 22 23 22 23 23 21 21 22 21 19 16
20 26 28 6 2 8 11 15 20 14 11 9 24 25 26 20 24 28 30 24 24 24 27 30 32 30 32 33 30 28 27 25 24 23 25 24 22 23 22 23 22 22 22 22 21 23 23 21 21
31 31 30 10 4 6 9 16 24 7 5 8 19 23 23 19 23 29 32 23 25 24 28 29 28 29 30 32 31 28 26 24 22 23 23 23 22 23 22 22 22 22 23 24 22 22 22 23 23
26 22 22 7 5 6 10 11 15 12 8 11 10 20 20 30 27 33 32 20 25 23 26 25 24 27 30 31 30 28 26 24 23 24 22 23 22 22 23 23 23 24 24 25 24 24 24 22 25
20 23 23 24 3 10 17 12 4 10 16 17 12 18 19 35 36 36 33 21 24 25 26 24 25 28 32 29 30 28 27 24 23 24 23 23 22 21 23 23 24 23 22 24 24 23 25 25 24
24 23 21 20 18 10 14 15 1 5 3 10 15 15 24 30 37 39 20 23 24 28 26 26 30 21 29 27 30 30 28 21 25 24 24 23 22 22 24 25 25 24 23 22 22 22 22 24 25
25 27 29 31 29 24 8 7 7 6 1 6 17 16 26 31 37 38 26 23 27 29 25 26 28 27 29 25 28 31 28 28 26 25 24 23 23 23 24 24 24 22 25 23 22 21 18 22 24
29 29 32 31 25 24 10 9 11 11 5 5 13 4 28 34 39 38 22 24 30 30 26 23 26 27 28 27 30 30 29 27 26 24 24 24 24 24 24 25 24 25 24 24 24 23 21 21 23
31 32 32 30 26 21 13 13 10 13 11 7 4 3 31 36 32 38 26 24 30 30 26 25 25 26 26 29 25 27 30 28 27 25 26 25 24 24 25 26 24 23 24 24 25 23 23 25 22
34 32 34 32 27 27 17 21 19 10 6 6 7 19 40 41 38 35 23 27 32 33 26 22 21 26 27 31 28 29 32 30 29 26 27 25 26 25 25 24 24 24 23 24 24 23 22 23 23
33 33 34 30 29 24 23 23 23 7 11 17 22 17 34 43 37 33 24 30 29 31 27 18 16 25 28 30 31 32 31 32 30 29 28 27 27 26 24 24 24 24 23 23 24 23 23 23 21
35 33 33 30 28 32 22 23 18 7 18 18 17 22 23 42 39 33 21 25 30 29 24 19 18 27 30 34 34 35 34 33 32 31 31 29 28 26 24 24 24 24 22 23 24 23 23 23 22
27 25 28 31 32 32 21 24 25 7 6 15 19 27 30 15 36 32 24 29 33 31 28 23 22 23 28 37 37 37 37 35 33 32 32 30 29 26 24 24 24 24 24 24 24 23 23 24 23
25 27 29 31 32 31 27 29 27 12 4 13 22 23 22 20 17 37 30 31 31 34 27 26 25 22 22 33 40 40 39 38 35 33 33 31 30 26 25 25 25 24 24 22 23 23 24 24 24
25 28 25 33 28 29 26 28 21 16 25 20 13 18 23 20 21 24 29 31 25 29 33 28 25 24 22 24 40 44 43 41 38 35 34 32 29 26 26 26 26 24 23 22 21 22 22 24 24
26 23 29 29 37 38 31 27 26 26 28 24 22 17 25 14 18 14 23 32 22 27 25 21 19 26 23 21 33 46 46 45 43 38 32 33 32 28 24 25 26 25 22 22 22 21 21 21 23
24 26 25 24 25 32 33 27 16 18 22 24 21 20 26 15 16 12 17 18 16 15 19 21 20 19 18 20 19 45 48 46 45 44 38 32 33 30 27 25 24 24 23 21 20 21 20 21 22
14 18 21 32 32 24 24 23 15 17 18 21 22 23 18 22 24 20 13 15 16 17 17 20 23 27 28 19 27 42 44 49 48 47 45 39 34 9 25 20 18 22 22 20 20 20 19 19 20
Wind_Direction
97 86 70 19 15 47 109 22 231 167 135 133 119 121 117 95 108 92 117 122 121 124 123 116 107 110 97 98 102 103 95 90 85 84 76 68 66 66 62 61 51 46 44 40 42 41 38 46 57
112 90 222 38 24 44 1 7 215 138 46 79 76 69 93 98 64 96 118 124 120 121 119 113 108 110 111 108 112 116 114 104 100 91 85 83 75 75 65 58 52 46 41 35 32 35 41 53 76
102 145 73 48 94 62 0 77 121 306 107 77 58 305 274 85 82 116 118 121 118 117 116 113 110 114 115 118 117 121 116 112 109 102 90 92 92 89 83 77 80 73 54 39 35 39 37 55 71
45 34 20 23 111 166 56 79 53 313 280 335 359 14 324 107 112 116 120 119 117 114 116 112 111 114 118 123 119 121 119 117 109 110 107 110 108 102 97 95 104 114 115 104 55 24 53 94 101
243 349 354 359 290 12 9 123 140 35 50 344 220 75 70 112 105 116 119 118 114 113 117 114 114 108 120 120 120 122 123 124 113 115 118 121 112 111 106 105 117 122 111 113 125 151 144 130 140
321 330 325 340 357 27 86 116 153 117 92 64 55 51 189 107 117 117 118 116 114 111 113 105 110 105 116 120 125 118 120 125 121 114 120 118 114 113 113 112 121 128 124 123 129 133 137 146 160
315 335 328 338 352 29 85 150 118 100 87 92 2 215 100 114 116 117 116 114 112 109 109 100 109 110 123 120 118 112 123 124 122 115 117 115 109 112 117 119 122 127 133 127 131 139 147 151 146
317 317 324 337 336 11 77 101 134 118 92 216 74 148 132 128 120 115 112 112 109 107 110 106 106 103 136 136 110 117 128 124 122 119 116 110 109 108 115 121 128 135 136 129 127 126 161 160 113
308 303 315 326 337 5 55 208 153 177 135 166 193 142 125 128 117 119 116 112 108 109 109 106 102 113 130 139 125 118 126 130 127 124 119 110 115 110 115 124 125 132 143 139 135 49 49 275 170
298 303 321 357 357 13 43 51 126 122 138 120 232 118 123 129 128 123 129 124 122 120 121 117 110 132 130 158 136 119 135 135 133 132 124 126 120 117 115 112 131 132 129 134 134 193 55 120 147
289 287 303 278 358 6 354 258 41 151 133 127 125 134 134 136 134 129 133 131 130 127 126 130 122 134 146 154 144 137 133 131 134 128 133 142 132 128 108 119 121 126 137 142 180 152 160 153 160
273 268 272 279 331 347 28 229 254 163 84 32 136 141 136 136 137 136 137 136 125 130 132 131 132 138 154 151 146 141 136 136 134 135 135 141 147 130 118 120 123 127 144 149 153 166 177 163 167
266 239 266 279 336 89 21 193 62 163 294 316 139 147 141 135 140 141 141 136 130 129 130 140 139 140 151 152 149 146 138 136 136 134 128 117 137 141 131 133 131 137 141 148 152 158 160 161 172
271 276 281 327 315 317 357 279 167 114 84 90 139 148 148 137 139 144 148 135 136 131 138 140 146 142 147 163 153 147 145 138 131 131 134 133 130 142 140 144 145 152 149 153 161 158 150 158 160
241 255 274 308 160 300 341 304 206 22 54 113 137 146 149 141 140 149 156 138 140 138 141 141 141 143 147 166 163 161 153 138 133 131 138 124 119 135 146 140 152 149 146 146 151 158 155 148 157
274 287 282 334 137 305 303 319 284 94 81 114 126 145 150 162 153 164 161 138 143 139 144 138 135 141 150 165 170 168 163 151 135 141 119 130 121 131 136 136 155 147 132 136 147 148 155 156 150
274 271 272 268 323 305 277 302 39 112 109 126 132 145 156 174 180 178 192 143 143 142 141 139 140 145 159 157 176 147 160 142 137 146 135 137 128 121 134 155 154 160 171 154 149 152 144 150 151
262 266 273 273 279 309 286 284 231 128 132 119 139 143 159 166 179 185 220 147 150 148 146 145 152 138 151 146 170 181 161 120 137 144 136 139 127 128 138 136 157 155 154 173 175 170 161 159 154
265 261 258 253 263 294 290 254 201 165 276 109 141 144 159 169 180 181 172 153 156 153 149 150 153 152 153 145 152 172 151 155 154 151 136 143 137 133 132 144 150 155 153 164 177 180 183 173 164
257 256 251 259 277 294 314 207 180 177 212 152 144 206 164 171 182 182 157 160 161 159 156 152 155 154 157 156 164 195 164 175 155 147 154 151 154 142 151 150 149 149 166 153 164 166 168 179 165
255 252 250 260 286 309 309 273 242 254 268 258 155 205 227 182 172 182 168 165 165 163 160 158 156 156 158 162 154 214 182 193 172 152 159 165 156 143 143 153 158 159 153 147 153 163 157 152 177
258 255 256 264 280 280 288 275 261 249 234 224 150 157 211 207 191 180 165 166 168 170 162 161 159 160 160 166 163 167 178 176 181 158 165 162 159 159 153 153 151 153 156 153 155 160 169 173 174
257 256 257 266 275 282 275 275 275 221 197 178 177 171 188 199 184 178 172 171 170 168 167 168 168 165 167 168 171 173 181 187 187 177 169 168 166 163 153 153 152 149 153 150 147 156 156 169 186
254 264 262 267 272 265 275 275 277 234 187 183 188 186 175 191 183 178 172 169 171 172 171 174 173 171 172 176 179 180 183 193 193 181 181 177 174 167 158 149 152 151 141 143 149 151 148 162 182
263 263 261 259 257 258 274 280 274 203 204 191 186 186 182 178 180 176 172 171 172 173 174 175 175 174 173 182 185 187 190 194 197 183 184 181 179 167 161 157 154 151 154 153 149 151 155 160 174
263 257 255 255 258 264 268 264 271 303 218 187 189 182 176 180 188 185 176 174 174 175 175 176 177 179 178 180 192 193 195 198 197 198 191 184 179 174 165 160 164 155 153 148 150 157 163 165 172
261 258 265 259 264 267 266 270 293 320 299 273 222 188 186 179 184 186 183 178 178 178 179 179 180 182 183 182 192 205 204 201 200 202 199 194 179 173 166 165 167 159 155 154 146 148 154 166 178
264 267 259 261 253 255 260 265 271 301 301 290 255 215 186 219 187 193 184 178 179 179 184 191 206 184 186 188 227 208 213 215 210 200 190 192 190 177 169 172 173 170 162 161 158 152 152 153 174
267 269 264 262 261 254 254 260 299 314 320 310 273 246 244 216 198 218 213 201 211 202 187 188 199 212 215 195 230 229 218 223 226 215 199 191 199 189 180 176 174 174 169 163 161 163 158 160 166
275 281 278 253 251 258 257 249 305 333 337 333 309 264 247 239 243 242 212 224 234 224 203 197 190 189 190 210 243 236 234 224 225 223 217 204 198 197 182 174 169 172 173 167 165 166 163 163 167